TimeCST,TemperatureF,Dew PointF,Humidity,Sea Level PressureIn,VisibilityMPH,Wind Direction,Wind SpeedMPH,Gust SpeedMPH,PrecipitationIn,Events,Conditions,WindDirDegrees,DateUTC
12:53 AM,12.0,8.1,84,30.39,10.0,ESE,6.9,-,N/A,,Mostly Cloudy,110,2013-02-21 06:53:00
1:53 AM,12.9,8.1,81,30.37,10.0,East,6.9,-,N/A,,Overcast,80,2013-02-21 07:53:00
2:53 AM,14.0,9.0,80,30.35,10.0,East,9.2,-,N/A,,Mostly Cloudy,90,2013-02-21 08:53:00
3:53 AM,12.9,7.0,77,30.29,10.0,East,10.4,-,N/A,,Clear,80,2013-02-21 09:53:00
4:53 AM,12.0,7.0,80,30.34,10.0,ESE,8.1,-,N/A,,Clear,120,2013-02-21 10:53:00
5:53 AM,10.9,6.1,81,30.32,10.0,ENE,9.2,-,N/A,,Clear,60,2013-02-21 11:53:00
6:53 AM,12.0,6.1,77,30.30,10.0,ENE,11.5,-,N/A,,Clear,70,2013-02-21 12:53:00
7:53 AM,12.9,7.0,77,30.31,10.0,East,10.4,-,N/A,,Clear,90,2013-02-21 13:53:00
8:53 AM,16.0,8.1,71,30.30,10.0,East,10.4,-,N/A,,Clear,100,2013-02-21 14:53:00
9:53 AM,18.0,8.1,65,30.31,10.0,East,13.8,-,N/A,,Clear,100,2013-02-21 15:53:00
10:53 AM,21.0,8.1,57,30.30,10.0,ESE,16.1,-,N/A,,Overcast,110,2013-02-21 16:53:00
11:53 AM,23.0,8.1,53,30.24,10.0,East,15.0,23.0,N/A,,Overcast,80,2013-02-21 17:53:00
12:53 PM,25.0,8.1,49,30.20,10.0,East,21.9,-,N/A,,Mostly Cloudy,80,2013-02-21 18:53:00
1:53 PM,26.1,9.0,49,30.16,9.0,ENE,19.6,-,N/A,,Mostly Cloudy,70,2013-02-21 19:53:00
2:53 PM,26.1,9.0,49,30.15,10.0,ENE,17.3,-,N/A,,Overcast,70,2013-02-21 20:53:00
3:53 PM,26.1,9.0,49,30.14,10.0,ENE,17.3,-,N/A,,Overcast,70,2013-02-21 21:53:00
4:53 PM,25.0,10.0,53,30.12,10.0,ENE,19.6,-,N/A,,Overcast,70,2013-02-21 22:53:00
5:53 PM,24.1,10.9,57,30.11,10.0,ENE,20.7,-,N/A,,Overcast,60,2013-02-21 23:53:00
6:53 PM,23.0,12.0,63,30.09,10.0,NE,20.7,26.5,N/A,,Overcast,50,2013-02-22 00:53:00
7:04 PM,21.2,12.2,68,30.01,1.8,ENE,23.0,29.9,0.00,Snow,Light Snow,60,2013-02-22 01:04:00
7:17 PM,21.2,15.8,80,30.00,1.2,NE,18.4,29.9,0.00,Snow,Light Snow,50,2013-02-22 01:17:00
7:53 PM,19.9,16.0,85,30.08,1.0,ENE,17.3,-,0.00,Snow,Light Snow,60,2013-02-22 01:53:00
8:14 PM,19.4,15.8,86,30.00,0.8,ENE,17.3,25.3,0.00,Snow,Light Snow,60,2013-02-22 02:14:00
8:22 PM,19.4,15.8,86,29.99,0.8,ENE,17.3,24.2,0.00,Snow,Light Snow,60,2013-02-22 02:22:00
8:53 PM,19.0,15.1,85,30.06,0.5,ENE,20.7,27.6,0.00,Fog-Snow,Snow,60,2013-02-22 02:53:00
9:53 PM,19.0,15.1,85,30.05,0.5,NE,13.8,-,0.00,Fog-Snow,Snow,50,2013-02-22 03:53:00
10:32 PM,17.6,14.0,86,29.96,1.0,ENE,19.6,-,0.00,Snow,Light Snow,60,2013-02-22 04:32:00
10:53 PM,18.0,14.0,84,30.01,1.0,ENE,17.3,-,0.00,Snow,Light Snow,60,2013-02-22 04:53:00
11:51 PM,17.6,14.0,86,29.93,1.5,NE,15.0,-,0.00,Snow,Light Snow,50,2013-02-22 05:51:00
11:53 PM,18.0,14.0,84,30.00,1.5,NE,15.0,-,0.00,Snow,Light Snow,40,2013-02-22 05:53:00